Skip Page Navigation
NASA JPL Caltech
NASA Logo - Jet Propulsion Laboratory + View the NASA Portal
+ Near-Earth Object (NEO) Program
Search JPL
JPL Home Earth Solar System Stars & Galaxies Technology
JPL Solar System Dynamics
BODIES ORBITS EPHEMERIDES TOOLS PHYSICAL DATA DISCOVERY FAQ SITE MAP
JPL Small-Body Database Browser
Search: [ help ]  
23069 Kapps (1999 XR64)
Classification: Main-belt Asteroid          SPK-ID: 2023069
Ephemeris | Orbit Diagram | Orbital Elements | Physical Parameters | Discovery Circumstances | Close-Approach Data ]

[ show orbit diagram ]
Orbital Elements at Epoch 2456400.5 (2013-Apr-18.0) TDB
Reference: JPL 1 (heliocentric ecliptic J2000)
 Element Value Uncertainty (1-sigma)   Units 
e .04911687577654292 9.1815e-08  
a 3.127372243179856 4.6584e-08 AU
q 2.973765489204583 2.8734e-07 AU
i 1.974049007894183 7.4991e-06 deg
node 94.00852779788146 0.00023622 deg
peri 262.453739820148 0.0002505 deg
M 220.3039010901229 8.5159e-05 deg
tp 2457184.379975556251
(2015-Jun-10.87997556)
0.00048312 JED
period 2020.076390123859
5.53
4.5135e-05
1.236e-07
d
yr
n .178211082392744 3.9818e-09 deg/d
Q 3.28097899715513 4.8872e-08 AU
  Orbit Determination Parameters
   # obs. used (total)      609  
   data-arc span      6687 days (18.31 yr)  
   first obs. used      1994-12-31  
   last obs. used      2013-04-22  
   planetary ephem.      DE405  
   SB-pert. ephem.      SB405-CPV-2  
   condition code      0  
   fit RMS      .56532  
   data source      ORB  
   producer      Otto Matic  
   solution date      2013-Apr-29 14:34:30  

Additional Information
 Earth MOID = 1.96931 AU 
 T_jup = 3.212 
[ show covariance matrix ]

Ephemeris | Orbit Diagram | Orbital Elements | Physical Parameters | Discovery Circumstances | Close-Approach Data ]

Physical Parameter Table
Parameter Symbol Value Units Sigma Reference Notes
absolute magnitude H 14.5 mag n/a PDS3 (MPO 10201)  

23069 Kapps           Discovered 1999 Dec. 7 by the Lincoln Laboratory Near-Earth Asteroid Research Team in Socorro.
Michael Kapps (b. 1989) was awarded second place in the 2007 Intel International Science and Engineering Fair for his animal sciences project. He attends the Thornhill Secondary School, Thornhill, Ontario, Canada.
NOTE: some special characters may not display properly (any characters within {} are an attempt to place the proper accent above a character)
Reference: 20070828/MPCPages.arcLast Updated: 2007-08-30

[ show close-approach data ]
Alternate Designations
 1999 XR64 = 1994 YM4 = 1998 RP26 
Ephemeris | Orbit Diagram | Orbital Elements | Physical Parameters | Discovery Circumstances | Close-Approach Data ]
ABOUT SSD CREDITS/AWARDS PRIVACY/COPYRIGHT GLOSSARY LINKS
FirstGov 2013-May-24 10:00 UT
(server date/time)  
NASA Home Page
Site Manager:   Donald K. Yeomans
Webmaster  Alan B. Chamberlin